COSMOS 2251 DEB, 33916

Orbit data source: Space-Track

COSMOS 2251 DEB, 33916 is space debris in LEO originally from a launch on Wed, 16 Jun 1993 UTC launched from the Plesetsk Missile And Space Complex (PKMTR). The debris from Iridium 33, an American commercial communications satellite, has been tracked extensively since its accidental collision with the defunct Russian satellite Cosmos 2251 in 2009. This event, occurring at high speed in low Earth orbit (LEO), generated thousands of pieces of space debris, significantly increasing the risk of further collisions. The Iridium 33 debris cloud has impacted space traffic management and orbital debris mitigation strategies, making it a subject of ongoing study in space situational awareness.

Loading next visibility...
Identifier
33916, 1993-036DV
Orbit
LEO
Country
Flag of CISCIS
Related business
Manufacturer
Unknown
Mission
Spacecraft
Bus & Motor
Unknown
Mass
Unknown
Launch date (UTC)
1993-06-16 (33 years ago)
Launch vehicle
Unknown
Launch site
Plesetsk Missile And Space Complex (PKMTR)
Object type
Payload
Rocket body
Debris
Shape & HBR
Unknown shape, 0.2 m
Radar Cross Section
Medium (>0.1 m² and <1 m²)

Expand to show TLE details & history
Last TLE update: 7 hours ago

TLE from 7 hours ago
0 COSMOS 2251 DEB
1 33916U 93036DV  26124.11952905  .00000430  00000-0  36493-3 0  9995
2 33916  74.0504 166.6342 0325236 306.7581  80.0601 13.68737728858393
Epoch: 2026-05-04T02:52Z
TLE epoch observation values (Epoch: 2026-05-04T02:52:07.309Z)
Latitude
29.27474°
Longitude
-89.23862°
Altitude
973.562 km
Speed
7.384 km/s
True Right ascension
11h 43m 13s
True Declination
29° 07' 57"
Sunlit
Object was in daylight at epoch
Visualization orbit readout
Latitude
Unknown
Longitude
Unknown
Altitude
Unknown
Speed
Unknown
Apparent Right ascension
Unknown
Apparent Declination
Unknown
Sunlit
N/A
Visualization observer readout
Local Sidereal Time
17:36:18
Azimuth
Unknown
Elevation
Unknown
Doppler factor
Unknown
Orbital elements
Apogee altitude
1,241.823 km
Perigee altitude
761.778 km
Semi-major axis
7,379.937 km
Eccentricity
0.03252
Inclination
74.0504°
RAAN
166.6342°
Arg. of periapsis
306.7581°
True anomaly
83.75446°
Mean anomaly
80.0601°
Eccentric anomaly
81.905°
Mean motion
3.42345 °/min
Orbital period
105.16 mins
BSTAR
0.00036493
Loading maneuver chart data...
Computing Atmospheric mass density...

Documentation

Showing up to 5 results
|